Roseburg, OR

5:19 PM PDT on September 21, 2019 (GMT -0700)
Roseburg Regional

Weather History for KRBG - July, 2019

Change the Weather History Date:

Thursday, July 18, 2019

  Actual Average Record
Temperature  
Mean Temperature 69 °F 71 °F  
Max Temperature 77 °F 85 °F 102 °F (1959)
Min Temperature 61 °F 57 °F 46 °F (1963)
Degree Days  
Heating Degree Days 0 0  
Month to date heating degree days 2 8  
Since 1 June heating degree days 37 91  
Since 1 July heating degree days 2 8  
Cooling Degree Days 4 6  
Month to date cooling degree days 100 89  
Year to date cooling degree days 251 159  
Since 1 June cooling degree days 222 139  
Growing Degree Days 20 (Base 50)    
Moisture  
Dew Point 58 °F    
Average Humidity 66    
Maximum Humidity 93    
Minimum Humidity 38    
Precipitation  
Precipitation 0.02 in 0.01 in 0.70 in (2011)
Month to date precipitation 0.02 0.28  
Year to date precipitation 21.69 19.04  
Sea Level Pressure  
Sea Level Pressure 30.01 in    
Wind  
Wind Speed 8 mph (North)    
Max Wind Speed 17 mph    
Max Gust Speed 23 mph    
Visibility 9 miles    
Events Rain    
T = Trace of Precipitation, MM = Missing Value Source: NWS Daily Summary

Daily Weather History Graph

Daily Weather History Graph

Search for Another Location

Airport or City:

Astronomy

Jul. 18, 2019 Rise Set
Actual Time 5:49 AM PDT 8:49 PM PDT
Civil Twilight 5:15 AM PDT 9:23 PM PDT
Nautical Twilight 4:32 AM PDT 10:06 PM PDT
Astronomical Twilight 3:40 AM PDT 10:57 PM PDT
Moon 10:15 PM PDT (7/18) 7:25 AM PDT (7/18)
Length of Visible Light 16h 07m
Length of Day
14h 59m
Waning Gibbous, 97% of the Moon is Illuminated
Jul 18
Waning Gibbous
Jul 24
Last Quarter
Jul 31
New
Aug 7
First Quarter
Aug 15
Full

Hourly Weather History & Observations

Time (PDT) Temp. Dew Point Humidity Pressure Visibility Wind Dir Wind Speed Gust Speed Precip Events Conditions
12:46 AM 69.1 °F 59.0 °F 70% 30.01 in 10.0 mi NW 3.5 mph - N/A   Overcast
12:53 AM 69.1 °F 59.0 °F 70% 30.00 in 10.0 mi WNW 4.6 mph - N/A   Overcast
1:34 AM 69.1 °F 59.0 °F 70% 30.01 in 10.0 mi Calm Calm - N/A   Overcast
1:53 AM 69.1 °F 59.0 °F 70% 29.99 in 10.0 mi Calm Calm - N/A   Overcast
2:53 AM 68.0 °F 60.1 °F 76% 29.99 in 10.0 mi ESE 3.5 mph - N/A   Overcast
3:02 AM 66.9 °F 60.1 °F 79% 30.00 in 10.0 mi East 4.6 mph - N/A   Overcast
3:39 AM 64.9 °F 61.0 °F 87% 30.01 in 9.0 mi Calm Calm - 0.00 in   Overcast
3:46 AM 64.9 °F 62.1 °F 90% 30.01 in 5.0 mi North 3.5 mph - 0.00 in   Overcast
3:53 AM 64.9 °F 62.1 °F 90% 30.00 in 5.0 mi North 3.5 mph - 0.00 in   Overcast
4:20 AM 64.9 °F 62.1 °F 90% 30.01 in 6.0 mi North 4.6 mph - 0.01 in   Overcast
4:29 AM 64.9 °F 62.1 °F 90% 30.01 in 2.5 mi NNW 4.6 mph - 0.01 in Rain Light Rain
4:38 AM 64.0 °F 62.1 °F 93% 30.01 in 3.0 mi NW 4.6 mph - 0.01 in Rain Light Rain
4:50 AM 64.4 °F 62.6 °F 94% 30.01 in 2.5 mi North 6.9 mph - 0.02 in Rain Light Rain
4:53 AM 64.0 °F 62.1 °F 93% 30.00 in 2.5 mi North 4.6 mph - 0.02 in Rain Light Rain
4:59 AM 64.0 °F 62.1 °F 93% 30.01 in 4.0 mi NNW 3.5 mph - 0.00 in Rain Light Rain
5:10 AM 64.0 °F 61.0 °F 90% 30.01 in 9.0 mi Calm Calm - 0.00 in   Overcast
5:21 AM 64.0 °F 61.0 °F 90% 30.01 in 10.0 mi North 3.5 mph - 0.00 in   Overcast
5:45 AM 64.0 °F 61.0 °F 90% 30.01 in 10.0 mi Calm Calm - 0.00 in   Overcast
5:53 AM 64.0 °F 61.0 °F 90% 30.01 in 10.0 mi Calm Calm - 0.00 in   Overcast
6:42 AM 64.9 °F 60.1 °F 84% 30.03 in 10.0 mi North 4.6 mph - N/A   Overcast
6:53 AM 64.9 °F 61.0 °F 87% 30.02 in 10.0 mi NW 4.6 mph - N/A   Overcast
7:09 AM 64.9 °F 61.0 °F 87% 30.03 in 10.0 mi North 4.6 mph - N/A   Overcast
7:53 AM 66.0 °F 61.0 °F 84% 30.04 in 10.0 mi North 6.9 mph - N/A   Overcast
8:05 AM 66.0 °F 61.0 °F 84% 30.05 in 10.0 mi North 8.1 mph - N/A   Overcast
8:53 AM 66.0 °F 57.9 °F 75% 30.04 in 10.0 mi North 13.8 mph - N/A   Overcast
9:53 AM 66.0 °F 55.9 °F 70% 30.04 in 10.0 mi North 12.7 mph - N/A   Overcast
10:53 AM 68.0 °F 55.9 °F 65% 30.04 in 10.0 mi North 9.2 mph - N/A   Overcast
11:24 AM 69.1 °F 55.0 °F 61% 30.04 in 10.0 mi NW 8.1 mph - N/A   Overcast
11:53 AM 69.1 °F 55.0 °F 61% 30.04 in 10.0 mi North 13.8 mph 18.4 mph N/A   Overcast
12:38 PM 70.0 °F 55.0 °F 59% 30.05 in 10.0 mi North 10.4 mph - N/A   Overcast
12:53 PM 71.1 °F 55.0 °F 57% 30.04 in 10.0 mi NNE 10.4 mph 19.6 mph N/A   Overcast
1:53 PM 72.0 °F 54.0 °F 53% 30.02 in 10.0 mi North 12.7 mph - N/A   Overcast
2:53 PM 73.0 °F 54.0 °F 51% 30.02 in 10.0 mi North 9.2 mph - N/A   Overcast
3:53 PM 73.9 °F 54.0 °F 50% 30.02 in 10.0 mi North 11.5 mph - N/A   Overcast
4:53 PM 73.9 °F 53.1 °F 48% 30.01 in 10.0 mi North 12.7 mph - N/A   Overcast
5:53 PM 75.9 °F 50.0 °F 40% 29.99 in 10.0 mi North 10.4 mph - N/A   Clear
6:53 PM 75.9 °F 50.0 °F 40% 29.97 in 10.0 mi Variable 6.9 mph - N/A   Clear
7:53 PM 75.0 °F 48.0 °F 38% 29.98 in 10.0 mi NNW 9.2 mph - N/A   Clear
8:53 PM 73.0 °F 51.1 °F 46% 29.99 in 10.0 mi NW 9.2 mph - N/A   Clear
9:53 PM 68.0 °F 51.1 °F 55% 30.01 in 10.0 mi NNW 6.9 mph - N/A   Clear
10:53 PM 66.0 °F 51.1 °F 59% 30.01 in 10.0 mi North 4.6 mph - N/A   Clear
11:53 PM 63.0 °F 51.1 °F 65% 30.02 in 10.0 mi North 3.5 mph - N/A   Clear